Regional Weather Roundup
Issued by NWS

Home | Current Version | Previous Version | Graphics & Text | Print | Product List | Glossary On
Versions: 1 2 3 4 5 6 7 8 9 10 11 12 13 14 15 16 17 18 19 20 21 22 23 24 25 26 27 28 29 30 31 32 33 34 35 36 37 38 39 40 41 42 43 44 45 46 47 48 49 50
000
ASUS43 KDTX 030910
RWRMI
MICHIGAN HOURLY REGIONAL WEATHER ROUNDUP
NATIONAL WEATHER SERVICE DETROIT/PONTIAC MI
500 AM EDT MON AUG 03 2015

NOTE: "FAIR" INDICATES FEW OR NO CLOUDS BELOW 12,000 FEET WITH NO
SIGNIFICANT WEATHER AND/OR OBSTRUCTION TO VISIBILITY.

MIZ047>049-052>055-059>063-066>070-074>076-081>083-031000-
SOUTHEAST LOWER MICHIGAN

CITY           SKY/WX    TMP DP  RH WIND       PRES   REMARKS
ADRIAN         CLOUDY    63  61  93 W6        29.78R
ALMA           MOCLDY    60  60  99 CALM      29.73R FOG
ANN ARBOR      CLOUDY    64  61  90 SW8       29.76R
BAD AXE        CLOUDY    62  60  95 SW7       29.70R
CARO           CLOUDY    62  62  99 SW6       29.71R
DETROIT CITY   CLOUDY    66  62  87 W10       29.75R
DETROIT        CLOUDY    65  62  90 SW12      29.77R
FLINT          CLOUDY    66  62  87 W7        29.74R
GROSSE ILE     CLOUDY    68  64  88 S16G29    29.74R
HILLSDALE      CLOUDY    63  63 100 S5        29.77S
HOWELL         CLOUDY    64  62  95 SW8       29.76R

CITY           SKY/WX    TMP DP  RH WIND       PRES   REMARKS
JACKSON        CLOUDY    64  62  93 SW5       29.76R
LAMBERTVILLE   CLOUDY    65  61  89 SW3       29.78R
LAPEER         CLOUDY    63  62  97 SW9       29.73R
MASON          CLOUDY    62  60  94 SW3       29.75R
MONROE         CLOUDY    64  62  94 S13       29.75R
MT. CLEMENS    CLOUDY    64  62  94 W5        29.72S
PONTIAC        LGT RAIN  63  62  97 SW12      29.74S FOG
PORT HURON     CLOUDY    63  61  94 SW6       29.73S
TRI CITIES     MOCLDY    63  60  90 W6        29.72R
MIDLAND        FAIR      60  60  97 CALM      29.71R
TROY           CLOUDY    64  63  94 SW13      29.77R
SAGINAW HB     CLOUDY    63  61  94 SW5       29.71R
$$
MIZ043>046-050>051-056>058-064>065-071>073-077>080-031000-
SOUTHWEST LOWER MICHIGAN

CITY           SKY/WX    TMP DP  RH WIND       PRES   REMARKS
BATTLE CREEK   CLOUDY    65  62  90 SW6       29.76R
BENTON HARBOR  PTCLDY    64  62  93 CALM      29.75R
BIG RAPIDS     CLEAR     58  58  97 CALM      29.73R
COLDWATER      CLOUDY    63  62  97 SW5       29.77R
FREMONT        FOG       58  58 100 CALM      29.73S VSB 1/2
HOLLAND        PTCLDY    63  61  93 CALM      29.75R
GRAND RAPIDS   PTCLDY    64  64 100 SW3       29.75R
IONIA          FOG       64  64  99 W3        29.73R VSB 3/4
KALAMAZOO      CLOUDY    65  62  90 CALM      29.77R
LUDINGTON      FOG       61  59  93 CALM      29.73R VSB 3/4
MARSHALL       CLOUDY    64  62  93 W5        29.76R
MOUNT PLEASANT PTCLDY    61  59  93 CALM      29.72R
MUSKEGON       CLEAR     61  59  93 SW3       29.74R
SOUTH HAVEN    PTCLDY    62  61  96 CALM      29.74S
$$
MIZ016>042-031000-
NORTHERN LOWER MICHIGAN

CITY           SKY/WX    TMP DP  RH WIND       PRES   REMARKS
ALPENA         PTCLDY    61  59  93 VRB3      29.66R
BEAVER ISLAND  FOG       55  54  96 CALM      29.67S VSB 1/2
BELLAIRE       CLOUDY    57  56  96 CALM      29.68F
CADILLAC       FOG       59  57  94 W3        29.72R VSB 1/4
CHARLEVOIX     PTCLDY    62  61  98 SW5       29.70R
FRANKFORT      FOG       54  54 100 CALM      29.70R VSB 3/4
GAYLORD        CLOUDY    60  60 100 W7        29.69S FOG
GRAYLING       CLOUDY    60  59  97 CALM      29.71R FOG
HARBOR SPRINGS MOCLDY    58  58  98 CALM      29.66S
HOUGHTON LAKE  FOG       58  58 100 NW6       29.72R VSB 1/4
MANISTEE       CLOUDY    55  54  94 CALM      29.72S VSB<1/4
OSCODA         MOCLDY    60  59  97 SW7       29.68R
PELLSTON       FOG       54  53  97 CALM      29.66S VSB 1
ROGERS CITY    CLEAR     60  58  96 W3        29.65S
TRAVERSE CITY  FOG       62  61  96 VRB3      29.68S VSB 1
$$
MIZ007>008-015-031000-
EASTERN UPPER MICHIGAN

CITY           SKY/WX    TMP DP  RH WIND       PRES   REMARKS
KINROSS        CLOUDY    54  52  94 W5        29.63F VSB 1/4
MACKINAC ISLAN   N/A     60  60 100 W7        29.64S
NEWBERRY       CLEAR     53  53 100 W6        29.65R
S. S. MARIE    CLOUDY    59  56  89 NW7       29.62S
MUNISING         N/A     61  50  67 VRB3      29.66S
$$
MIZ004>006-011>014-085-031000-
CENTRAL UPPER MICHIGAN

CITY           SKY/WX    TMP DP  RH WIND       PRES   REMARKS
MANISTIQUE     CLEAR     54  52  94 NW6       29.67R
ESCANABA       CLEAR     55  52  88 W7        29.69S
MENOMINEE      CLEAR     57  52  82 NW3       29.71S
SAWYER-GWINN   PTCLDY    53  50  90 W6        29.71R
$$
MIZ001>003-009>011-084-031000-
WESTERN UPPER MICHIGAN

CITY           SKY/WX    TMP DP  RH WIND       PRES   REMARKS
IRON MOUNTAIN  CLOUDY    59  51  75 NW6       29.72S
HOUGHTON       CLOUDY    59  51  75 NW10      29.69S
COPPER HARBOR    N/A     62  54  74 N21G26    29.65F
IRONWOOD       CLOUDY    57  52  82 W3        29.73F
$$

ABBREVIATIONS USED IN REMARKS
   TC - TEMPERATURE IN CELSIUS
  WCI - WIND CHILL INDEX
   HX - HEAT INDEX
  VSB - VISIBILITY



USA.gov is the U.S. government's official web portal to all federal, state and local government web resources and services.